Location: Klein M�hlingen
(51.9472°N, 11.7453°E)
Time: 08:03:21
(UTC+00:00)

Envisat - Pass Details

Date: 04 October 2021
Orbit: 764 x 766 km, 98.2° (Epoch: 22 October)

Event Time Altitude Azimuth Distance (km) Brightness Sun altitude
Rises 03:20:32 0° 24° (NNE) 3,244 6.9 -18.9°
Reaches altitude 10° 03:23:21 10° 39° (NE) 2,312 6.3 -18.4°
Maximum altitude 03:27:19 23° 90° (E) 1,609 5.5 -17.9°
Drops below altitude 10° 03:31:15 10° 142° (SE) 2,298 5.8 -17.3°
Sets 03:34:02 0° 157° (SSE) 3,219 6.3 -16.9°
